EW4117 Weather Reports


time (UTC)temp
F
wind
direction
speed
knots
gust
knots
rain 1hr
in
rain 24hr
in
rain mn
in
humidity
%
barometer
mb
20260507160057 54 342 7.8 12.2 0.00 0.31 0.31 58 1005.4
20260507154546 55 342 2.6 8.7 0.00 0.31 0.31 57 1005.3
20260507153051 54 352 2.6 6.1 0.00 0.31 0.31 58 1005.4
20260507151545 54 6 5.2 9.6 0.00 0.31 0.31 55 1005.3
20260507150044 55 333 1.7 4.3 0.00 0.31 0.31 56 1005.2
20260507144547 54 37 1.7 5.2 0.00 0.31 0.31 54 1005.4
20260507143042 54 347 3.5 8.7 0.00 0.31 0.31 59 1005.5
20260507141639 53 223 0.0 4.3 0.00 0.31 0.31 58 1005.7
20260507140052 52 340 3.5 7.8 0.00 0.31 0.31 63 1005.7
20260507134534 51 55 3.5 8.7 0.00 0.31 0.31 64 1005.9
20260507133035 50 3 3.5 12.2 0.00 0.31 0.31 68 1005.9
20260507131536 48 3 6.1 10.4 0.02 0.31 0.31 71 1006.1
20260507130038 46 37 4.3 12.2 0.05 0.31 0.31 71 1006.1
20260507124536 46 120 5.2 12.2 0.10 0.31 0.31 73 1006.5
20260507123033 45 108 5.2 8.7 0.20 0.31 0.31 76 1007.0
20260507121538 44 92 3.5 6.1 0.22 0.28 0.28 76 1007.2
20260507120028 45 146 0.9 5.2 0.22 0.26 0.26 75 1007.3
20260507114527 45 212 1.7 5.2 0.20 0.20 0.20 75 1007.2
20260507113033 46 143 3.5 6.1 0.11 0.11 0.11 71 1007.1
20260507111524 47 18 0.0 0.0 0.06 0.06 0.06 73 1006.7
20260507110027 47 335 0.0 5.2 0.04 0.04 0.04 69 1006.6
20260507104520 50 244 4.3 11.3 0.00 0.00 0.00 70 1006.4
20260507103018 50 321 2.6 7.0 0.00 0.00 0.00 68 1006.4
20260507101526 51 309 3.5 7.8 0.00 0.00 0.00 67 1006.3
20260507100021 51 312 0.9 7.8 0.00 0.00 0.00 69 1006.4
20260507094521 51 331 2.6 5.2 0.00 0.00 0.00 68 1006.4
20260507093032 50 306 1.7 7.0 0.00 0.00 0.00 71 1006.4
20260507091514 50 320 0.9 5.2 0.00 0.00 0.00 72 1006.5
20260507090019 49 345 3.5 7.0 0.00 0.00 0.00 72 1006.5
20260507084509 49 327 3.5 5.2 0.00 0.00 0.00 74 1006.4
20260507083010 48 347 3.5 5.2 0.00 0.00 0.00 72 1006.3
20260507081506 48 319 0.0 3.5 0.00 0.00 0.00 73 1006.3
20260507080005 48 257 0.0 2.6 0.00 0.00 0.00 74 1006.1
20260507074510 47 302 0.0 2.6 0.00 0.00 0.00 78 1006.0
20260507073002 46 20 0.0 1.7 0.00 0.00 0.00 81 1005.9
20260507071611 45 37 0.0 1.7 0.00 0.00 0.00 82 1005.9
20260507070056 45 58 0.0 1.7 0.00 0.00 0.00 82 1005.9
20260507064558 45 80 0.0 2.6 0.00 0.00 0.00 82 1005.9
20260507063058 44 15 0.9 4.3 0.00 0.00 0.00 82 1005.8
20260507061553 44 67 0.9 2.6 0.00 0.00 0.00 82 1005.7
20260507060100 44 32 0.0 1.7 0.00 0.00 0.00 81 1005.5
20260507054602 44 33 0.0 0.9 0.00 0.00 0.00 80 1005.4
20260507053049 44 39 0.0 2.6 0.00 0.00 0.00 78 1005.3
20260507051548 43 54 1.7 1.7 0.00 0.00 0.00 73 1005.2
20260507050045 44 51 1.7 2.6 0.00 0.00 0.00 70 1004.9
20260507044542 45 13 1.7 2.6 0.00 0.00 0.00 65 1004.8
20260507043040 45 351 0.0 0.9 0.00 0.00 0.00 63 1004.7
20260507041538 45 131 0.0 0.9 0.00 0.00 0.00 61 1004.6
20260507040040 46 163 0.0 1.7 0.00 0.00 0.00 60 1004.7
20260507034535 46 174 1.7 3.5 0.00 0.00 0.00 61 1004.7
20260507033036 46 175 1.7 3.5 0.00 0.00 0.00 64 1004.9
20260507031531 46 235 1.7 4.3 0.00 0.00 0.00 61 1004.9
20260507030031 46 168 0.9 1.7 0.00 0.00 0.00 62 1004.9
20260507024527 46 160 0.9 1.7 0.00 0.00 0.00 64 1004.9
20260507023028 46 148 0.0 1.7 0.00 0.00 0.00 65 1005.0
20260507021524 46 141 0.9 0.0 0.00 0.00 0.00 65 1005.0
20260507020023 46 124 0.0 0.0 0.00 0.00 0.00 67 1005.1
20260507014521 46 136 0.0 0.9 0.00 0.00 0.00 67 1005.1
20260507013023 46 171 0.0 0.0 0.00 0.00 0.00 67 1005.3
20260507011533 46 173 0.0 0.0 0.00 0.00 0.00 67 1005.5
20260507010015 47 185 0.9 4.3 0.00 0.00 0.00 66 1005.6
20260507004517 47 203 1.7 4.3 0.00 0.00 0.00 66 1005.7
20260507003012 48 166 0.9 6.1 0.00 0.00 0.00 65 1005.8
20260507001504 49 198 0.0 5.2 0.00 0.00 0.00 63 1006.0
20260507000003 49 195 0.0 0.0 0.00 0.00 0.00 61 1006.0
20260506234606 50 207 0.0 0.0 0.00 0.00 0.00 60 1006.2
20260506233058 50 255 0.0 0.0 0.00 0.00 0.00 59 1006.1
20260506231557 51 132 0.0 2.6 0.00 0.00 0.00 58 1006.3
20260506230057 51 159 3.5 5.2 0.00 0.00 0.00 58 1006.3
20260506224554 51 116 3.5 6.1 0.00 0.00 0.00 57 1006.4
20260506223053 51 163 1.7 3.5 0.00 0.00 0.00 57 1006.3
20260506221550 51 198 3.5 6.1 0.00 0.00 0.00 57 1006.5
20260506220058 51 174 4.3 7.0 0.00 0.00 0.00 56 1006.4
20260506214548 50 167 0.0 2.6 0.00 0.00 0.00 53 1006.6
20260506213046 51 200 0.0 0.0 0.00 0.00 0.00 50 1006.6
20260506211547 52 223 0.0 0.0 0.00 0.00 0.00 49 1006.5
20260506210050 52 191 0.0 0.9 0.00 0.00 0.00 48 1006.3
20260506204547 52 159 0.9 1.7 0.00 0.00 0.00 50 1006.1
20260506203126 52 214 0.0 0.9 0.00 0.00 0.00 48 1006.0
20260506201546 52 215 0.0 0.0 0.00 0.00 0.00 47 1006.0
20260506200048 53 313 0.0 0.0 0.00 0.00 0.00 47 1005.8
20260506194542 53 314 0.0 0.9 0.00 0.00 0.00 45 1005.6
20260506193041 54 331 0.0 0.0 0.00 0.00 0.00 44 1005.4
20260506191544 54 333 0.0 0.9 0.00 0.00 0.00 43 1005.2
20260506190048 54 353 1.7 3.5 0.00 0.00 0.00 43 1005.1
20260506184551 55 311 1.7 6.1 0.00 0.00 0.00 43 1005.1
20260506183039 55 316 2.6 5.2 0.00 0.00 0.00 42 1005.1
20260506181539 56 319 0.9 5.2 0.00 0.00 0.00 42 1004.9
20260506180039 56 264 2.6 7.0 0.00 0.00 0.00 40 1004.7
20260506174537 57 264 3.5 8.7 0.00 0.00 0.00 38 1004.6
20260506173047 59 300 3.5 7.0 0.00 0.00 0.00 36 1004.6
20260506171538 60 2 5.2 8.7 0.00 0.00 0.00 34 1004.5
20260506170035 59 319 3.5 8.7 0.00 0.00 0.00 34 1004.5
20260506164538 59 347 0.9 5.2 0.00 0.00 0.00 35 1004.4
20260506163053 59 359 1.7 4.3 0.00 0.00 0.00 35 1004.5
20260506161533 60 338 0.0 2.6 0.00 0.00 0.00 34 1004.5